Location: Remedello Sotto
(45.2500°N, 10.3667°E)
Time: 21:12:45
(UTC+00:00)

Cosmos 1190 Rocket - Pass Details

Date: 03 February 2023
Orbit: 756 x 778 km, 74.1° (Epoch: 22 March)

Event Time Altitude Azimuth Distance (km) Brightness Sun altitude
Rises 17:32:55 0° 207° (SSW) 3,247 7.9 -11.7°
Reaches altitude 10° 17:35:19 10° 210° (SSW) 2,323 7.1 -12.1°
Maximum altitude 17:40:34 67° 293° (WNW) 843 4.4 -13.0°
Drops below altitude 10° 17:45:51 10° 16° (NNE) 2,330 6.2 -13.9°
Sets 17:48:15 0° 20° (NNE) 3,258 7.0 -14.3°
